Pella, IA

6:01 PM CDT on June 24, 2017 (GMT -0500)
Pella Municipal

Weather History for KPEA - February, 2014

Change the Weather History Date:

Wednesday, February 26, 2014

  Actual Average (KOXV) Record (KOXV)
Temperature  
Mean Temperature 10 °F -  
Max Temperature 25 °F 41 °F 65 °F (1988)
Min Temperature -4 °F 21 °F -12 °F (1963)
Degree Days  
Heating Degree Days 54    
Moisture  
Dew Point 2 °F    
Average Humidity 65    
Maximum Humidity 84    
Minimum Humidity 48    
Precipitation  
Precipitation 0.00 in - - ()
Sea Level Pressure  
Sea Level Pressure 30.13 in    
Wind  
Wind Speed 8 mph (West)    
Max Wind Speed 24 mph    
Max Gust Speed 32 mph    
Visibility 10 miles    
Events      
Averages and records for this station are not official NWS values.
T = Trace of Precipitation, MM = Missing Value Source: NWS Daily Summary

Daily Weather History Graph

Daily Weather History Graph

Search for Another Location

Airport or City:

Trip Planner

Search our weather history database for the weather conditions in past years. The results will help you decide how hot, cold, wet, or windy it might be!

Date:

Astronomy

Feb. 26, 2014 Rise Set
Actual Time 6:50 AM CST 5:58 PM CST
Civil Twilight 6:23 AM CST 6:26 PM CST
Nautical Twilight 5:50 AM CST 6:58 PM CST
Astronomical Twilight 5:19 AM CST 7:30 PM CST
Moon 4:38 AM CST (2/26) 3:12 PM CST (2/26)
Length of Visible Light 12h 03m
Length of Day
11h 08m
Waning Crescent, 10% of the Moon is Illuminated
Feb 26
Waning Crescent
Mar 1
New
Mar 8
First Quarter
Mar 16
Full
Mar 23
Last Quarter

Hourly Weather History & Observations

Time (CST) Temp. Windchill Dew Point Humidity Pressure Visibility Wind Dir Wind Speed Gust Speed Precip Events Conditions
12:15 AM 2.5 °F -14.8 °F -6.7 °F 66% 30.43 in 10.0 mi NNW 12.7 mph 24.2 mph N/A   Clear
12:35 AM 2.1 °F -12.6 °F -6.9 °F 66% 30.43 in 10.0 mi NW 9.2 mph - N/A   Clear
12:55 AM 1.9 °F -14.7 °F -7.1 °F 66% 30.43 in 10.0 mi NW 11.5 mph - N/A   Clear
1:15 AM 1.4 °F -15.3 °F -6.9 °F 68% 30.43 in 10.0 mi NW 11.5 mph 17.3 mph N/A   Clear
1:35 AM 1.2 °F -12.7 °F -6.7 °F 69% 30.43 in 10.0 mi NW 8.1 mph - N/A   Clear
1:55 AM 1.0 °F -6.7 °F -6.5 °F 71% 30.42 in 10.0 mi NW 3.5 mph - N/A   Clear
2:15 AM -0.4 °F - -7.1 °F 73% 30.42 in 10.0 mi Calm Calm - N/A   Clear
2:30 AM -0.4 °F - -6.9 °F 74% 30.42 in 10.0 mi Calm Calm - N/A   Clear
2:55 AM 0.1 °F -7.7 °F -6.7 °F 73% 30.41 in 10.0 mi NW 3.5 mph - N/A   Clear
3:15 AM -0.4 °F - -6.7 °F 75% 30.39 in 10.0 mi Calm Calm - N/A   Clear
3:35 AM -1.3 °F - -6.7 °F 78% 30.39 in 10.0 mi Calm Calm - N/A   Clear
3:55 AM -1.3 °F - -6.7 °F 78% 30.38 in 10.0 mi Calm Calm - N/A   Clear
4:15 AM -0.6 °F -8.5 °F -6.2 °F 77% 30.38 in 10.0 mi WNW 3.5 mph - N/A   Clear
4:35 AM -0.8 °F - -6.0 °F 79% 30.37 in 10.0 mi Calm Calm - N/A   Clear
4:55 AM -1.8 °F - -6.7 °F 80% 30.35 in 10.0 mi Calm Calm - N/A   Clear
5:15 AM -2.6 °F - -6.9 °F 82% 30.34 in 10.0 mi Calm Calm - N/A   Clear
5:35 AM -3.5 °F - -7.4 °F 83% 30.34 in 10.0 mi Calm Calm - N/A   Clear
5:55 AM -3.3 °F - -7.2 °F 83% 30.33 in 10.0 mi Calm Calm - N/A   Clear
6:15 AM -3.5 °F - -7.4 °F 83% 30.32 in 10.0 mi Calm Calm - N/A   Clear
6:35 AM -3.8 °F - -7.6 °F 84% 30.32 in 10.0 mi Calm Calm - N/A   Clear
6:55 AM -4.0 °F - -7.8 °F 84% 30.31 in 10.0 mi Calm Calm - N/A   Clear
7:15 AM -3.1 °F - -6.9 °F 84% 30.31 in 10.0 mi Calm Calm - N/A   Clear
7:35 AM -1.5 °F - -6.2 °F 80% 30.31 in 10.0 mi Calm Calm - N/A   Clear
7:55 AM -0.2 °F - -5.8 °F 77% 30.30 in 10.0 mi Calm Calm - N/A   Clear
8:15 AM 0.5 °F - -6.2 °F 74% 30.30 in 10.0 mi Calm Calm - N/A   Clear
8:35 AM 1.8 °F -9.5 °F -5.6 °F 71% 30.29 in 10.0 mi WSW 5.8 mph - N/A   Clear
8:55 AM 2.8 °F -8.2 °F -5.1 °F 70% 30.29 in 10.0 mi WSW 5.8 mph - N/A   Clear
9:15 AM 3.6 °F -10.9 °F -4.7 °F 68% 30.28 in 10.0 mi West 9.2 mph - N/A   Clear
9:35 AM 5.2 °F -6.7 °F -3.8 °F 66% 30.26 in 10.0 mi West 6.9 mph - N/A   Clear
9:55 AM 6.6 °F -6.1 °F -2.6 °F 66% 30.25 in 10.0 mi WSW 8.1 mph - N/A   Clear
10:15 AM 7.5 °F -7.7 °F -2.2 °F 65% 30.23 in 10.0 mi WSW 11.5 mph 16.1 mph N/A   Clear
10:35 AM 7.9 °F -6.4 °F -1.7 °F 65% 30.23 in 10.0 mi WSW 10.4 mph 19.6 mph N/A   Clear
10:55 AM 9.5 °F -5.2 °F -0.8 °F 63% 30.22 in 10.0 mi West 11.5 mph 18.4 mph N/A   Clear
11:15 AM 10.6 °F -2.2 °F -0.2 °F 62% 30.20 in 10.0 mi West 9.2 mph 18.4 mph N/A   Clear
11:35 AM 11.7 °F -3.8 °F -2.0 °F 54% 30.19 in 10.0 mi WSW 13.8 mph 21.9 mph N/A   Clear
11:55 AM 12.9 °F -2.8 °F -1.5 °F 53% 30.17 in 10.0 mi West 15.0 mph 19.6 mph N/A   Clear
12:15 PM 13.5 °F -2.7 °F -2.7 °F 49% 30.16 in 10.0 mi WSW 16.1 mph 23.0 mph N/A   Clear
12:35 PM 14.0 °F -2.0 °F -2.0 °F 49% 30.14 in 10.0 mi WSW 16.1 mph 20.7 mph N/A   Clear
12:55 PM 14.9 °F 0.9 °F -0.2 °F 51% 30.11 in 10.0 mi WSW 12.7 mph 19.6 mph N/A   Clear
1:15 PM 16.2 °F 2.5 °F 0.1 °F 49% 30.09 in 10.0 mi WSW 12.7 mph 24.2 mph N/A   Clear
1:35 PM 17.4 °F 3.5 °F 0.7 °F 48% 30.07 in 10.0 mi West 13.8 mph 23.0 mph N/A   Clear
1:55 PM 18.3 °F 6.6 °F 2.1 °F 49% 30.05 in 10.0 mi West 10.4 mph 24.2 mph N/A   Clear
2:15 PM 19.4 °F 5.0 °F 3.6 °F 50% 30.02 in 10.0 mi WSW 16.1 mph 23.0 mph N/A   Clear
2:35 PM 20.3 °F 6.1 °F 4.6 °F 51% 30.00 in 10.0 mi WSW 16.1 mph 20.7 mph N/A   Clear
2:55 PM 21.2 °F 6.4 °F 5.9 °F 52% 29.97 in 10.0 mi WSW 18.4 mph 24.2 mph N/A   Clear
3:15 PM 22.1 °F 8.0 °F 6.6 °F 51% 29.95 in 10.0 mi WSW 17.3 mph 25.3 mph N/A   Clear
3:35 PM 23.0 °F 10.1 °F 7.5 °F 52% 29.94 in 10.0 mi WSW 15.0 mph 23.0 mph N/A   Clear
3:55 PM 23.5 °F 9.9 °F 7.7 °F 51% 29.93 in 10.0 mi WSW 17.3 mph 25.3 mph N/A   Clear
4:15 PM 23.9 °F 10.8 °F 8.4 °F 52% 29.91 in 10.0 mi WSW 16.1 mph 24.2 mph N/A   Clear
4:35 PM 24.3 °F 12.2 °F 9.1 °F 53% 29.90 in 10.0 mi WSW 13.8 mph 24.2 mph N/A   Clear
4:55 PM 24.6 °F 11.7 °F 9.7 °F 53% 29.88 in 10.0 mi WSW 16.1 mph 25.3 mph N/A   Clear
5:15 PM 24.8 °F 14.0 °F 10.2 °F 54% 29.87 in 10.0 mi WSW 11.5 mph 20.7 mph N/A   Clear
5:35 PM 24.8 °F 14.6 °F 10.6 °F 55% 29.86 in 10.0 mi WSW 10.4 mph 19.6 mph N/A   Clear
5:55 PM 24.3 °F 12.7 °F 11.3 °F 58% 29.84 in 10.0 mi WSW 12.7 mph 21.9 mph N/A   Clear
6:15 PM 24.1 °F 12.0 °F 12.0 °F 60% 29.84 in 10.0 mi WSW 13.8 mph 20.7 mph N/A   Clear
6:35 PM 24.1 °F 12.0 °F 12.6 °F 62% 29.84 in 10.0 mi WSW 13.8 mph 17.3 mph N/A   Clear
6:55 PM 24.6 °F 14.4 °F 13.1 °F 62% 29.84 in 10.0 mi WSW 10.4 mph 18.4 mph N/A   Clear
7:15 PM 24.8 °F 14.0 °F 13.6 °F 63% 29.84 in 10.0 mi WSW 11.5 mph - N/A   Clear
7:35 PM 24.8 °F 14.0 °F 14.0 °F 64% 29.84 in 10.0 mi West 11.5 mph 17.3 mph N/A   Clear
7:55 PM 24.4 °F 14.2 °F 14.5 °F 66% 29.84 in 10.0 mi West 10.4 mph 17.3 mph N/A   Clear
8:15 PM 24.4 °F 17.5 °F 14.7 °F 67% 29.84 in 10.0 mi West 5.8 mph - N/A   Clear
8:35 PM 24.4 °F 14.9 °F 14.9 °F 67% 29.85 in 10.0 mi West 9.2 mph 17.3 mph N/A   Clear
8:55 PM 23.9 °F 14.2 °F 14.9 °F 69% 29.85 in 10.0 mi West 9.2 mph - N/A   Clear
9:15 PM 23.7 °F 14.0 °F 14.9 °F 69% 29.86 in 10.0 mi WNW 9.2 mph - N/A   Clear
9:35 PM 24.8 °F 12.9 °F 13.5 °F 62% 29.86 in 10.0 mi WNW 13.8 mph 18.4 mph N/A   Clear
9:55 PM 25.2 °F 11.2 °F 11.5 °F 56% 29.87 in 10.0 mi WNW 19.6 mph 26.5 mph N/A   Clear
10:15 PM 25.2 °F 13.3 °F 11.5 °F 56% 29.87 in 10.0 mi NW 13.8 mph 26.5 mph N/A   Clear
10:35 PM 24.8 °F 11.9 °F 11.5 °F 57% 29.87 in 10.0 mi NW 16.1 mph 23.0 mph N/A   Clear
10:55 PM 23.7 °F 7.9 °F 12.0 °F 61% 29.88 in 10.0 mi NW 24.2 mph 32.2 mph N/A   Clear
11:15 PM 22.1 °F 9.5 °F 12.0 °F 65% 29.89 in 10.0 mi NW 13.8 mph 20.7 mph N/A   Clear
11:35 PM 20.5 °F 5.5 °F 11.5 °F 68% 29.90 in 10.0 mi NNW 18.4 mph 27.6 mph N/A   Clear
11:55 PM 18.7 °F 3.6 °F 10.4 °F 70% 29.92 in 10.0 mi North 17.3 mph 27.6 mph N/A   Clear